DateTimeUTC,F1_A11,F1_S11,BsB_S11,BsG_S11,BsR_S11,BbsB_S11,BbsG_S11,BbsR_S11,BaB_A11,BaG_A11,BaR_A11,Tu_S11,T_S11,Uu_S11,U_S11,P_S11,T1_A11
2021-07-27T11:00:00Z,00000200,20000000,,,,,,,-000.01,0000.04,-000.25,18.9,25.3,13.1,08.9,0684.5,31.1
2021-07-27T11:01:00Z,00000200,20000000,,,,,,,-000.22,-000.34,-000.04,18.9,25.3,13.1,08.9,0684.5,31.1
2021-07-27T11:02:00Z,00000200,20000000,,,,,,,-000.28,0000.23,0000.10,18.9,25.3,13.1,08.9,0684.5,31.1
2021-07-27T11:03:00Z,00000200,60000000,,,,,,,0003.38,0002.55,0002.09,18.9,25.3,13.1,08.9,0684.5,31.1
2021-07-27T11:04:00Z,00000200,40000000,0019.43,0015.95,0011.35,0002.49,0001.80,0001.20,0003.77,0003.28,0003.22,19.0,25.2,13.2,09.1,0685.5,31.1
2021-07-27T11:05:00Z,00000200,00000000,0019.16,0015.93,0011.01,0002.55,0001.74,0001.58,0004.02,0003.87,0002.67,19.1,25.2,13.2,09.1,0685.5,31.1
2021-07-27T11:06:00Z,00000200,00000000,0019.43,0015.59,0011.41,0002.46,0001.59,0001.76,0003.41,0003.56,0003.06,19.1,25.2,13.2,09.1,0685.5,31.1
2021-07-27T11:07:00Z,00000200,00000000,0019.91,0015.51,0011.17,0003.08,0002.04,0001.66,0004.11,0003.65,0002.76,19.1,25.2,13.2,09.1,0685.6,31.1
2021-07-27T11:08:00Z,00000200,00000000,0019.56,0016.12,0011.21,0002.80,0001.86,0001.62,0003.86,0003.68,0002.77,19.1,25.1,13.3,09.2,0685.6,31.1
2021-07-27T11:09:00Z,00000200,00000000,0018.30,0015.02,0010.80,0002.85,0001.59,0001.46,0003.55,0003.14,0002.71,19.1,25.1,13.4,09.2,0685.6,31.0
2021-07-27T11:10:00Z,00000200,00000000,0017.93,0015.12,0009.93,0002.42,0001.97,0001.18,0004.01,0003.31,0002.77,19.1,25.2,13.3,09.2,0685.6,31.1
2021-07-27T11:11:00Z,00000200,00000000,0018.73,0015.00,0010.27,0001.94,0001.85,0001.48,0003.50,0003.62,0002.72,19.1,25.2,13.3,09.2,0685.6,31.1
2021-07-27T11:12:00Z,00000200,00000000,0018.78,0015.77,0010.05,0003.11,0001.68,0001.64,0003.56,0002.99,0002.57,19.1,25.2,13.5,09.3,0685.6,31.0
2021-07-27T11:13:00Z,00000200,00000000,0018.92,0015.24,0010.99,0002.79,0001.94,0001.69,0003.65,0003.69,0002.71,19.1,25.2,13.4,09.3,0685.6,31.1
2021-07-27T11:14:00Z,00000200,00000000,0018.89,0014.73,0010.22,0002.43,0001.78,0001.51,0003.80,0003.38,0002.76,19.1,25.2,13.4,09.3,0685.6,31.0
2021-07-27T11:15:00Z,00000200,00000000,0018.59,0015.12,0010.57,0002.63,0001.42,0001.89,0003.92,0003.54,0003.18,19.2,25.2,13.5,09.3,0685.6,31.1
2021-07-27T11:16:00Z,00000200,00000000,0019.33,0015.48,0010.46,0002.97,0001.63,0001.54,0003.24,0003.01,0002.32,19.2,25.2,13.5,09.3,0685.7,31.1
2021-07-27T11:17:00Z,00000200,00000000,0018.69,0014.85,0009.87,0002.55,0001.53,0001.40,0003.62,0003.48,0002.66,19.2,25.2,13.5,09.4,0685.7,31.1
2021-07-27T11:18:00Z,00000200,00000000,0017.94,0014.79,0010.23,0002.47,0001.81,0001.39,0003.85,0003.69,0002.70,19.2,25.2,13.4,09.3,0685.7,31.1
2021-07-27T11:19:00Z,00000200,00000000,0017.77,0015.35,0010.24,0002.17,0001.81,0001.72,0003.58,0003.38,0002.70,19.2,25.2,13.4,09.3,0685.7,31.1
2021-07-27T11:20:00Z,00000200,00000000,0017.55,0014.44,0009.80,0002.72,0001.64,0001.30,0003.89,0003.23,0002.46,19.2,25.2,13.5,09.4,0685.7,31.1
2021-07-27T11:21:00Z,00000200,00000000,0018.78,0014.59,0010.23,0002.94,0002.09,0001.47,0003.41,0002.96,0002.81,19.2,25.2,13.4,09.3,0685.7,31.1
2021-07-27T11:22:00Z,00000200,00000000,0017.96,0014.70,0010.38,0002.46,0001.65,0001.14,0003.45,0003.48,0002.31,19.2,25.2,13.4,09.3,0685.7,31.1
2021-07-27T11:23:00Z,00000200,00000000,0018.71,0014.15,0009.86,0002.61,0001.96,0001.18,0003.60,0003.42,0002.58,19.2,25.2,13.4,09.3,0685.7,31.1
2021-07-27T11:24:00Z,00000200,00000000,0017.12,0013.89,0009.14,0002.72,0001.56,0001.12,0003.31,0002.97,0002.67,19.2,25.2,13.4,09.3,0685.7,31.1
2021-07-27T11:25:00Z,00000200,00000000,0017.29,0013.55,0010.01,0002.16,0001.58,0001.40,0003.38,0002.71,0002.49,19.2,25.2,13.5,09.4,0685.7,31.1
2021-07-27T11:26:00Z,00000200,00000000,0017.55,0014.14,0009.71,0002.47,0001.80,0001.40,0003.29,0003.37,0002.47,19.2,25.2,13.4,09.3,0685.7,31.1
2021-07-27T11:27:00Z,00000200,00000000,0017.49,0013.70,0009.31,0002.80,0001.66,0001.16,0003.12,0002.77,0002.17,19.2,25.2,13.5,09.3,0685.7,31.1
2021-07-27T11:28:00Z,00000200,00000000,0016.22,0013.38,0008.96,0002.20,0001.83,0001.23,0003.48,0003.27,0002.44,19.2,25.2,13.4,09.3,0685.7,31.1
2021-07-27T11:29:00Z,00000200,00000000,0016.73,0013.39,0009.06,0002.02,0001.73,0001.38,0003.20,0002.86,0002.10,19.2,25.2,13.4,09.3,0685.7,31.1
2021-07-27T11:30:00Z,00000200,00000000,0016.07,0012.83,0008.74,0002.42,0001.49,0001.32,0003.33,0003.05,0002.46,19.2,25.2,13.4,09.3,0685.7,31.1
2021-07-27T11:31:00Z,00000200,00000000,0016.57,0012.90,0009.04,0001.83,0001.42,0000.92,0002.81,0002.79,0002.18,19.2,25.2,13.3,09.2,0685.7,31.1
2021-07-27T11:32:00Z,00000200,00000000,0016.15,0012.55,0008.69,0001.86,0001.67,0001.05,0003.55,0003.02,0002.77,19.2,25.2,13.3,09.3,0685.8,31.1
2021-07-27T11:33:00Z,00000200,00000000,0016.49,0012.68,0008.46,0002.70,0001.52,0001.50,0003.07,0003.04,0002.22,19.2,25.2,13.3,09.3,0685.7,31.0
2021-07-27T11:34:00Z,00000200,00000000,0016.96,0013.00,0008.68,0002.11,0001.40,0001.19,0003.17,0002.70,0002.30,19.2,25.2,13.3,09.2,0685.8,31.0
2021-07-27T11:35:00Z,00000200,00000000,0017.08,0012.66,0008.39,0001.90,0001.51,0001.33,0003.41,0003.30,0002.36,19.2,25.2,13.4,09.3,0685.8,31.0
2021-07-27T11:36:00Z,00000200,00000000,0015.98,0012.54,0008.63,0002.48,0001.45,0001.43,0003.07,0002.82,0002.23,19.2,25.2,13.4,09.3,0685.8,31.0
2021-07-27T11:37:00Z,00000200,00000000,0017.18,0012.97,0008.41,0001.91,0001.42,0001.34,0003.36,0002.90,0002.27,19.3,25.2,13.3,09.2,0685.8,31.0
2021-07-27T11:38:00Z,00000200,00000000,0015.01,0012.72,0008.70,0002.34,0001.33,0001.34,0002.58,0002.49,0002.30,19.3,25.2,13.2,09.2,0685.8,31.0
2021-07-27T11:39:00Z,00000200,00000000,0015.67,0012.69,0008.84,0001.42,0001.60,0001.00,0003.38,0003.16,0002.17,19.3,25.2,13.4,09.3,0685.8,31.1
2021-07-27T11:40:00Z,00000200,00000000,0016.05,0012.73,0008.63,0002.26,0001.59,0001.42,0002.93,0002.64,0002.39,19.3,25.3,13.3,09.3,0685.8,31.1
2021-07-27T11:41:00Z,00000200,00000000,0015.00,0011.98,0008.28,0002.16,0001.45,0001.46,0003.03,0002.53,0001.94,19.3,25.3,13.3,09.2,0685.8,31.1
2021-07-27T11:42:00Z,00000200,00000000,0015.31,0011.87,0007.92,0002.41,0001.54,0001.24,0002.77,0002.75,0002.04,19.3,25.3,13.3,09.3,0685.8,31.1
2021-07-27T11:43:00Z,00000200,00000000,0015.67,0012.46,0008.11,0002.14,0001.36,0000.88,0003.15,0002.81,0002.36,19.3,25.3,13.3,09.3,0685.8,31.1
2021-07-27T11:44:00Z,00000200,00000000,0014.92,0012.42,0008.45,0002.06,0001.29,0001.10,0002.87,0002.81,0002.14,19.3,25.3,13.2,09.2,0685.8,31.1
2021-07-27T11:45:00Z,00000200,00000000,0015.71,0011.91,0007.88,0002.79,0001.41,0001.20,0002.86,0002.32,0001.58,19.3,25.3,13.3,09.3,0685.8,31.1
2021-07-27T11:46:00Z,00000200,00000000,0013.99,0011.92,0007.63,0001.89,0001.16,0001.10,0002.62,0002.43,0002.11,19.3,25.3,13.2,09.2,0685.8,31.1
2021-07-27T11:47:00Z,00000200,00000000,0013.97,0010.89,0007.23,0001.96,0001.41,0000.90,0002.96,0002.68,0002.09,19.3,25.3,13.2,09.2,0685.9,31.1
2021-07-27T11:48:00Z,00000200,00000000,0013.61,0010.97,0007.15,0001.29,0001.23,0001.19,0002.67,0002.32,0001.91,19.3,25.3,13.1,09.2,0685.8,31.1
2021-07-27T11:49:00Z,00000200,00000000,0014.36,0011.05,0007.23,0002.39,0001.53,0001.07,0002.51,0002.64,0002.19,19.3,25.3,13.1,09.1,0685.8,31.1
2021-07-27T11:50:00Z,00000200,00000000,0014.30,0010.53,0007.24,0001.91,0001.04,0001.23,0002.55,0002.60,0001.67,19.3,25.3,13.1,09.1,0685.9,31.1
2021-07-27T11:51:00Z,00000200,00000000,0013.71,0010.62,0007.27,0001.82,0001.13,0001.07,0002.83,0002.20,0002.04,19.4,25.3,13.1,09.2,0685.9,31.1
2021-07-27T11:52:00Z,00000200,00000000,0012.99,0010.67,0006.84,0001.65,0001.42,0001.08,0002.40,0002.39,0001.76,19.4,25.3,13.1,09.2,0685.9,31.1
2021-07-27T11:53:00Z,00000200,00000000,0012.60,0010.61,0007.23,0001.18,0001.23,0001.07,0002.44,0002.33,0001.77,19.4,25.3,13.2,09.2,0685.9,31.1
2021-07-27T11:54:00Z,00000200,00000000,0013.20,0010.21,0006.95,0002.06,0001.20,0001.20,0002.88,0002.53,0002.07,19.4,25.3,13.1,09.2,0685.9,31.1
2021-07-27T11:55:00Z,00000200,00000000,0014.55,0010.71,0007.10,0001.92,0001.40,0000.92,0002.47,0002.30,0001.95,19.4,25.3,13.1,09.1,0685.9,31.1
2021-07-27T11:56:00Z,00000200,00000000,0013.37,0010.17,0006.75,0001.97,0001.56,0001.13,0002.97,0002.61,0001.82,19.4,25.3,13.1,09.1,0685.9,31.1
2021-07-27T11:57:00Z,00000200,40000000,,,,,,,0000.54,0000.40,0000.44,19.4,25.3,13.5,09.4,0685.8,31.1
2021-07-27T11:58:00Z,00000200,60000000,,,,,,,-000.16,-000.04,-000.04,19.3,25.4,13.2,09.0,0684.9,31.1
2021-07-27T11:59:00Z,00000200,20000000,,,,,,,-000.55,-000.34,-000.14,19.3,25.5,13.1,08.9,0684.9,31.1
